SNKJ6 RPMD-RPVI

Flight info

Callsign SNKJ6
Flight time N/A
Altitude 36000
Route JOFER3P JOFER W8 MCT W6A KADSO KADSO2
Aircraft A320/M-SDFGJ1IYRW/LB1

Departure

Time 2026-05-07 14:23
Airport Francisco Bangoy International Airport (RPMD)

Arrival

Time N/A
Airport Iloilo International Airport (RPVI)
Time Latitude Longitude Altitude Speed Heading
2026-05-07 14:03 7.12844 125.64423 100 ft 0 kts 320°
2026-05-07 14:15 7.12837 125.64428 101 ft 4 kts 321°
2026-05-07 14:15 7.12816 125.64445 100 ft 4 kts 326°
2026-05-07 14:15 7.12793 125.64459 100 ft 4 kts 335°
2026-05-07 14:15 7.12768 125.64467 100 ft 4 kts
2026-05-07 14:16 7.12751 125.64462 101 ft 1 kts 49°
2026-05-07 14:16 7.12749 125.64459 101 ft 0 kts 49°
2026-05-07 14:19 7.12799 125.64518 101 ft 24 kts 50°
2026-05-07 14:19 7.12942 125.64688 101 ft 34 kts 49°
2026-05-07 14:20 7.13015 125.64851 104 ft 7 kts 144°
2026-05-07 14:20 7.12980 125.64851 101 ft 11 kts 177°
2026-05-07 14:20 7.12901 125.64885 102 ft 14 kts 136°
2026-05-07 14:20 7.12902 125.64975 101 ft 16 kts 50°
2026-05-07 14:21 7.12983 125.65073 102 ft 20 kts 49°
2026-05-07 14:21 7.13086 125.65193 100 ft 26 kts 48°
2026-05-07 14:21 7.13213 125.65341 100 ft 31 kts 50°
2026-05-07 14:21 7.13364 125.65491 100 ft 26 kts 27°
2026-05-07 14:22 7.13438 125.65549 100 ft 6 kts 123°
2026-05-07 14:22 7.13393 125.65541 100 ft 8 kts 210°
2026-05-07 14:22 7.13345 125.65490 99 ft 14 kts 231°
2026-05-07 14:22 7.13127 125.65234 100 ft 84 kts 229°
2026-05-07 14:23 7.12605 125.64630 101 ft 141 kts 229°
2026-05-07 14:23 7.11873 125.63778 267 ft 168 kts 229°
2026-05-07 14:23 7.11104 125.62937 865 ft 168 kts 227°
2026-05-07 14:23 7.10287 125.62067 1391 ft 174 kts 226°
2026-05-07 14:24 7.09610 125.61061 1934 ft 181 kts 259°
2026-05-07 14:24 7.09831 125.59799 2217 ft 197 kts 307°
2026-05-07 14:24 7.10907 125.58851 2467 ft 218 kts 328°
2026-05-07 14:24 7.12272 125.58002 2804 ft 243 kts 329°
2026-05-07 14:25 7.13780 125.57079 3352 ft 260 kts 329°
2026-05-07 14:25 7.15347 125.56120 4164 ft 266 kts 329°
2026-05-07 14:25 7.16914 125.55090 5024 ft 272 kts 324°
2026-05-07 14:25 7.18387 125.53867 5845 ft 277 kts 320°
2026-05-07 14:26 7.19824 125.52541 6622 ft 283 kts 318°
2026-05-07 14:26 7.21264 125.51169 7401 ft 288 kts 317°
2026-05-07 14:26 7.22727 125.49778 8166 ft 291 kts 319°
2026-05-07 14:26 7.24224 125.48378 8937 ft 295 kts 319°
2026-05-07 14:27 7.25232 125.47450 9445 ft 298 kts 319°
2026-05-07 14:27 7.27319 125.45550 10205 ft 312 kts 320°
2026-05-07 14:27 7.28412 125.44561 10329 ft 327 kts 320°
2026-05-07 14:27 7.30165 125.42978 10461 ft 349 kts 319°
2026-05-07 14:28 7.32005 125.41316 10751 ft 361 kts 319°
2026-05-07 14:28 7.33892 125.39625 11332 ft 365 kts 322°
2026-05-07 14:28 7.35964 125.38144 11895 ft 368 kts 328°
2026-05-07 14:28 7.38808 125.36242 12693 ft 373 kts 328°
2026-05-07 14:29 7.40985 125.34793 13275 ft 377 kts 328°
2026-05-07 14:29 7.42441 125.33823 13654 ft 379 kts 328°
2026-05-07 14:29 7.44679 125.32328 14156 ft 384 kts 328°
2026-05-07 14:29 7.46887 125.30849 14649 ft 388 kts 328°
2026-05-07 14:30 7.49141 125.29337 15170 ft 392 kts 328°
2026-05-07 14:30 7.51423 125.27810 15682 ft 395 kts 328°
2026-05-07 14:30 7.53720 125.26273 16176 ft 398 kts 328°
2026-05-07 14:30 7.56042 125.24721 16677 ft 402 kts 328°
2026-05-07 14:31 7.58380 125.23158 17219 ft 404 kts 329°
2026-05-07 14:31 7.60732 125.21584 17727 ft 407 kts 329°
2026-05-07 14:31 7.63105 125.19995 18212 ft 411 kts 328°
2026-05-07 14:31 7.65496 125.18394 18671 ft 413 kts 329°
2026-05-07 14:32 7.67897 125.16787 19117 ft 416 kts 328°
2026-05-07 14:32 7.70316 125.15166 19600 ft 418 kts 328°
2026-05-07 14:32 7.72744 125.13538 20082 ft 421 kts 328°
2026-05-07 14:32 7.75194 125.11899 20563 ft 423 kts 328°
2026-05-07 14:33 7.77660 125.10250 21027 ft 426 kts 328°
2026-05-07 14:33 7.80103 125.08615 21463 ft 429 kts 328°
2026-05-07 14:33 7.82625 125.06922 21906 ft 432 kts 328°
2026-05-07 14:33 7.85101 125.05261 22334 ft 434 kts 328°
2026-05-07 14:34 7.87623 125.03567 22759 ft 436 kts 328°
2026-05-07 14:34 7.90158 125.01864 23161 ft 439 kts 328°
2026-05-07 14:34 7.92702 125.00157 23543 ft 441 kts 328°
2026-05-07 14:34 7.95258 124.98442 23872 ft 442 kts 328°
2026-05-07 14:35 7.97770 124.96633 24222 ft 445 kts 323°
2026-05-07 14:35 8.00179 124.94666 24548 ft 447 kts 323°
2026-05-07 14:35 8.02602 124.92688 24863 ft 448 kts 323°
2026-05-07 14:35 8.05031 124.90712 25173 ft 450 kts 323°
2026-05-07 14:36 8.07474 124.88725 25482 ft 451 kts 323°
2026-05-07 14:36 8.09924 124.86729 25788 ft 453 kts 323°
2026-05-07 14:36 8.12379 124.84725 26084 ft 454 kts 323°
2026-05-07 14:36 8.14839 124.82720 26381 ft 456 kts 323°
2026-05-07 14:37 8.17311 124.80706 26667 ft 457 kts 322°
2026-05-07 14:37 8.22270 124.76662 27239 ft 460 kts 322°
2026-05-07 14:37 8.24764 124.74627 27502 ft 461 kts 322°
2026-05-07 14:38 8.27266 124.72586 27757 ft 463 kts 322°
2026-05-07 14:38 8.29771 124.70541 28044 ft 464 kts 322°
2026-05-07 14:38 8.32288 124.68483 28327 ft 466 kts 322°
2026-05-07 14:38 8.34810 124.66424 28601 ft 467 kts 322°
2026-05-07 14:39 8.37344 124.64357 28906 ft 468 kts 322°
2026-05-07 14:39 8.39840 124.62321 29294 ft 466 kts 322°
2026-05-07 14:39 8.42351 124.60266 29729 ft 464 kts 321°
2026-05-07 14:39 8.44832 124.58178 30106 ft 464 kts 321°
2026-05-07 14:40 8.47276 124.56061 30433 ft 463 kts 320°
2026-05-07 14:40 8.49704 124.53924 30771 ft 462 kts 320°
2026-05-07 14:40 8.52125 124.51786 31117 ft 461 kts 320°
2026-05-07 14:40 8.54538 124.49663 31468 ft 460 kts 320°
2026-05-07 14:41 8.56954 124.47551 31828 ft 459 kts 320°
2026-05-07 14:41 8.59380 124.45440 32149 ft 460 kts 320°
2026-05-07 14:41 8.61806 124.43336 32479 ft 460 kts 320°
2026-05-07 14:41 8.64239 124.41229 32831 ft 460 kts 320°
2026-05-07 14:42 8.66671 124.39125 33186 ft 460 kts 320°
2026-05-07 14:42 8.69096 124.37027 33553 ft 459 kts 320°
2026-05-07 14:42 8.71524 124.34925 33912 ft 459 kts 320°
2026-05-07 14:42 8.73942 124.32827 34203 ft 458 kts 319°
2026-05-07 14:43 8.76357 124.30723 34533 ft 457 kts 319°
2026-05-07 14:43 8.78762 124.28628 34841 ft 457 kts 320°
2026-05-07 14:43 8.81170 124.26531 35148 ft 456 kts 320°
2026-05-07 14:43 8.83573 124.24436 35446 ft 455 kts 320°
2026-05-07 14:44 8.85971 124.22352 35736 ft 455 kts 320°
2026-05-07 14:44 8.88375 124.20261 35845 ft 456 kts 320°
2026-05-07 14:44 8.93196 124.16069 35865 ft 462 kts 320°
2026-05-07 14:45 8.98074 124.11828 35865 ft 463 kts 320°
2026-05-07 14:45 9.02954 124.07573 35868 ft 463 kts 320°
2026-05-07 14:46 9.07829 124.03326 35871 ft 463 kts 320°
2026-05-07 14:46 9.12714 123.99078 35869 ft 464 kts 320°
2026-05-07 14:47 9.17585 123.94839 35869 ft 465 kts 319°
2026-05-07 14:47 9.22474 123.90568 35888 ft 464 kts 319°
2026-05-07 14:48 9.27365 123.86302 35890 ft 463 kts 319°
2026-05-07 14:48 9.32243 123.82051 35891 ft 462 kts 319°
2026-05-07 14:49 9.37116 123.77802 35891 ft 462 kts 319°
2026-05-07 14:49 9.41984 123.73541 35889 ft 462 kts 319°
2026-05-07 14:50 9.46842 123.69295 35895 ft 462 kts 319°
2026-05-07 14:50 9.51697 123.65063 35877 ft 463 kts 319°
2026-05-07 14:51 9.56584 123.60801 35882 ft 463 kts 319°
2026-05-07 14:51 9.61462 123.56533 35883 ft 463 kts 319°
2026-05-07 14:52 9.66338 123.52257 35642 ft 463 kts 319°
2026-05-07 14:52 9.71207 123.47988 35174 ft 462 kts 318°
2026-05-07 14:53 9.73639 123.45861 34947 ft 462 kts 318°
2026-05-07 14:53 9.76075 123.43735 34718 ft 461 kts 318°
2026-05-07 14:53 9.78501 123.41615 34493 ft 461 kts 318°
2026-05-07 14:53 9.80928 123.39489 34267 ft 460 kts 318°
2026-05-07 14:54 9.83349 123.37368 33832 ft 461 kts 318°
2026-05-07 14:54 9.85800 123.35222 32816 ft 467 kts 318°
2026-05-07 14:54 9.88262 123.33067 31919 ft 470 kts 319°
2026-05-07 14:54 9.90717 123.30917 30954 ft 474 kts 319°
2026-05-07 14:55 9.93221 123.28724 29995 ft 476 kts 320°
2026-05-07 14:55 9.95741 123.26513 28839 ft 481 kts 320°
2026-05-07 14:55 9.98241 123.24318 28353 ft 471 kts 320°
2026-05-07 14:55 10.00706 123.22149 27664 ft 467 kts 321°
2026-05-07 14:56 10.03150 123.19996 26997 ft 463 kts 321°
2026-05-07 14:56 10.05577 123.17862 26325 ft 460 kts 321°
2026-05-07 14:56 10.07998 123.15740 25656 ft 457 kts 321°
2026-05-07 14:56 10.10400 123.13632 24997 ft 455 kts 322°
2026-05-07 14:57 10.12786 123.11537 24343 ft 453 kts 321°
2026-05-07 14:57 10.15168 123.09446 23695 ft 451 kts 321°
2026-05-07 14:57 10.17534 123.07369 22979 ft 449 kts 321°
2026-05-07 14:57 10.19881 123.05309 22361 ft 444 kts 321°
2026-05-07 14:58 10.22206 123.03269 21755 ft 439 kts 321°
2026-05-07 14:58 10.24503 123.01254 21164 ft 435 kts 321°
2026-05-07 14:58 10.26784 122.99251 20602 ft 431 kts 321°
2026-05-07 14:58 10.29043 122.97265 20044 ft 429 kts 321°
2026-05-07 14:59 10.31292 122.95285 19500 ft 426 kts 321°
2026-05-07 14:59 10.33501 122.93338 18945 ft 425 kts 321°
2026-05-07 14:59 10.35730 122.91375 18392 ft 424 kts 321°
2026-05-07 14:59 10.37959 122.89409 17761 ft 424 kts 321°
2026-05-07 15:00 10.40181 122.87448 17222 ft 420 kts 321°
2026-05-07 15:00 10.42348 122.85537 17089 ft 406 kts 321°
2026-05-07 15:00 10.44442 122.83690 16959 ft 391 kts 322°
2026-05-07 15:00 10.46461 122.81911 16827 ft 377 kts 322°
2026-05-07 15:01 10.48458 122.80275 16695 ft 361 kts 330°
2026-05-07 15:01 10.50646 122.79163 16575 ft 344 kts 344°
2026-05-07 15:01 10.52911 122.78533 16126 ft 333 kts 350°
2026-05-07 15:01 10.55149 122.77982 15472 ft 330 kts 350°
2026-05-07 15:02 10.57371 122.77442 14854 ft 325 kts 350°
2026-05-07 15:02 10.59553 122.76913 14376 ft 320 kts 350°
2026-05-07 15:02 10.61714 122.76387 13917 ft 319 kts 350°
2026-05-07 15:02 10.63888 122.75858 13435 ft 322 kts 350°
2026-05-07 15:03 10.66048 122.75328 13015 ft 317 kts 350°
2026-05-07 15:03 10.68175 122.74805 12492 ft 312 kts 350°
2026-05-07 15:03 10.70279 122.74289 12035 ft 310 kts 350°
2026-05-07 15:03 10.72364 122.73779 11586 ft 308 kts 350°
2026-05-07 15:04 10.74455 122.73267 11145 ft 311 kts 350°
2026-05-07 15:04 10.76557 122.72749 10801 ft 309 kts 350°
2026-05-07 15:04 10.78614 122.72241 10475 ft 307 kts 350°
2026-05-07 15:04 10.80694 122.71725 10168 ft 306 kts 350°
2026-05-07 15:05 10.82751 122.71216 9869 ft 303 kts 350°
2026-05-07 15:05 10.84809 122.70710 9472 ft 304 kts 350°
2026-05-07 15:05 10.86860 122.70207 9021 ft 305 kts 350°
2026-05-07 15:05 10.88892 122.69707 8515 ft 297 kts 350°
2026-05-07 15:06 10.90889 122.69215 7972 ft 292 kts 350°
2026-05-07 15:06 10.92844 122.68732 7505 ft 285 kts 350°
2026-05-07 15:06 10.94754 122.68260 7061 ft 279 kts 350°
2026-05-07 15:06 10.96620 122.67798 6667 ft 272 kts 350°
2026-05-07 15:07 10.98400 122.67354 6550 ft 257 kts 350°
2026-05-07 15:07 11.00129 122.66926 6439 ft 255 kts 350°
2026-05-07 15:07 11.01843 122.66506 6322 ft 253 kts 351°
2026-05-07 15:07 11.03553 122.66088 6202 ft 252 kts 351°
2026-05-07 15:08 11.05271 122.65804 6080 ft 250 kts 360°
2026-05-07 15:08 11.06997 122.65689 5958 ft 248 kts
2026-05-07 15:08 11.08689 122.65636 5850 ft 247 kts
2026-05-07 15:08 11.10392 122.65381 5793 ft 252 kts 343°
2026-05-07 15:09 11.11842 122.64359 5795 ft 260 kts 312°
2026-05-07 15:09 11.12615 122.62698 5798 ft 264 kts 280°
2026-05-07 15:09 11.12483 122.60843 5802 ft 266 kts 249°
2026-05-07 15:09 11.11486 122.59283 5806 ft 264 kts 218°
2026-05-07 15:10 11.09904 122.58412 5806 ft 258 kts 188°
2026-05-07 15:10 11.08154 122.58401 5804 ft 249 kts 160°
2026-05-07 15:10 11.06656 122.59174 5804 ft 239 kts 133°
2026-05-07 15:10 11.05676 122.60502 5799 ft 234 kts 110°
2026-05-07 15:11 11.05117 122.62057 5794 ft 235 kts 106°
2026-05-07 15:11 11.04586 122.63627 5628 ft 237 kts 112°
2026-05-07 15:11 11.03430 122.64879 4990 ft 258 kts 149°
2026-05-07 15:11 11.01626 122.65205 4441 ft 272 kts 187°
2026-05-07 15:12 10.99996 122.64371 4305 ft 260 kts 225°
2026-05-07 15:12 10.99230 122.62809 4201 ft 243 kts 266°
2026-05-07 15:12 10.99327 122.61144 3984 ft 233 kts 290°
2026-05-07 15:12 11.00038 122.59689 3927 ft 226 kts 308°
2026-05-07 15:13 11.00750 122.58285 3866 ft 230 kts 283°
2026-05-07 15:13 11.00637 122.56678 3750 ft 232 kts 248°
2026-05-07 15:13 10.99614 122.55402 3256 ft 240 kts 207°
2026-05-07 15:13 10.98075 122.54753 2904 ft 240 kts 196°
2026-05-07 15:14 10.96488 122.54204 2583 ft 240 kts 196°
2026-05-07 15:14 10.94947 122.53645 2279 ft 229 kts 197°
2026-05-07 15:14 10.93463 122.53096 2014 ft 223 kts 199°
2026-05-07 15:14 10.92037 122.52568 1716 ft 213 kts 200°
2026-05-07 15:15 10.90688 122.52069 1433 ft 199 kts 198°
2026-05-07 15:15 10.89466 122.51615 1195 ft 176 kts 199°
2026-05-07 15:15 10.88359 122.51205 990 ft 166 kts 199°
2026-05-07 15:15 10.87275 122.50806 791 ft 165 kts 197°
2026-05-07 15:16 10.86555 122.50540 654 ft 166 kts 195°
2026-05-07 15:16 10.86186 122.50404 584 ft 167 kts 197°